Flag for Germany Weather past 2 weeks in Ingolstadt, Bavaria, Germany

Now
70 °F

Partly sunny.


Feels Like: 70 °F
Forecast: 58 / 82 °F
Wind: 7 mph from Northeast

Location: Ingolstadt Airport

Current Time: Aug 1, 2014 at 11:30:22 AM

Latest Report: Aug 1, 2014 at 10:20 AM


Visibility: N/A

Pressure: 29.92 "Hg

Humidity: 73%

Dew point: 61 °F

Location of IngolstadtLocation

Historic Weather in Ingolstadt — Graph

°F

Ingolstadt temperature yesterday

Maximum temperature yesterday: 73 °F (at 2:20 PM)
Minimum temperature yesterday: 63 °F (at 5:20 AM)
Average temperature yesterday: 68 °F

Past Weeks' High & Low Weather Summary

 TemperatureHumidityPressure
High90 °F (Jul 19, 4:20 PM)100% (Jul 21, 7:20 PM)30.18 "Hg (Jul 21, 7:20 PM)
Low55 °F (Jul 23, 5:20 AM)24% (Jul 19, 4:20 PM)29.74 "Hg (Jul 29, 3:20 PM)
Average70 °F73%29.92 "Hg
* Reported Jul 17 10:20 AM — Aug 1 10:20 AM, Ingolstadt, Weather by CustomWeather, © 2014

Note: Actual official high and low records may vary slightly from our data, if they occured in-between our weather recording intervals... More about our weather records

Advertising

Ingolstadt weather history for previous 24 hours

 ConditionsComfort  
Time TempWeatherWind HumidityBarometerVisibility
10:20 AM
Aug 1
70 °FPartly sunny.7 mph73%29.92 "HgN/A
9:20 AM66 °FPartly sunny.5 mph78%29.95 "HgN/A
8:20 AM61 °FPartly sunny.6 mph88%29.95 "HgN/A
7:20 AM59 °FScattered clouds.5 mph88%29.95 "Hg6 mi
6:20 AM55 °FPassing clouds.6 mph100%29.95 "HgN/A
5:20 AM55 °FPassing clouds.2 mph100%29.95 "HgN/A
4:20 AM57 °FCool.1 mph94%29.95 "Hg0 mi
3:20 AM57 °FCool.2 mph100%29.98 "Hg1 mi
2:20 AM59 °FCool.3 mph94%29.98 "Hg2 mi
1:20 AM61 °FCool.3 mph88%29.98 "Hg1 mi
12:20 AM61 °FCool.3 mph94%29.98 "Hg2 mi
11:20 PM
Jul 31
63 °FMild.No wind88%29.98 "Hg2 mi
10:20 PM64 °FMild.3 mph83%29.98 "Hg2 mi
9:20 PM66 °FMild.2 mph78%29.98 "Hg3 mi
8:20 PM72 °FMild.2 mph61%29.98 "Hg3 mi
7:20 PM72 °FScattered clouds.5 mph61%29.98 "HgN/A
6:20 PM73 °FScattered clouds.3 mph53%29.98 "HgN/A
5:20 PM73 °FPartly sunny.5 mph53%29.98 "HgN/A
4:20 PM73 °FPartly sunny.3 mph50%29.98 "HgN/A
4:00 PM73 °FPartly sunny.3 mph53%29.98 "HgN/A
3:20 PM73 °FPartly sunny.7 mph53%29.98 "HgN/A
2:20 PM73 °FScattered clouds.7 mph53%29.98 "HgN/A
1:20 PM72 °FPartly sunny.9 mph57%30.01 "HgN/A
12:20 PM72 °FScattered clouds.8 mph61%30.01 "HgN/A
11:20 AM70 °FScattered clouds.9 mph64%30.01 "HgN/A
Weather by CustomWeather, © 2014

See weather overviewHow to use our weather pages